CZ-3C R/B, 65487

Orbit data source: Space-Track

CZ-3C R/B, 65487 is space debris in HEO originally from a launch on Fri, 05 Sep 2025 UTC launched from the Xichang Space Center, China (XSC). Debris objects in space refer to the collection of defunct objects orbiting the Earth. Examples of debris include non-operational satellites, rocket bodies, and fragments generated from explosions, collisions, or faulty payload assembly.

Loading next visibility...
Identifier
65487, 2025-196B
Orbit
HEO
Country
Flag of CNCN / PRC
Related business
Manufacturer
CALT
Mission
Spacecraft
Bus & Motor
CZ-3C STAGE 3, Unknown motor
Mass
~2,800 kg wet, ~2,800 kg dry
Launch date (UTC)
2025-09-05 (1 year ago)
Launch vehicle
Unknown
Launch site
Xichang Space Center, China (XSC)
Object type
Payload
Rocket body
Debris
Shape & HBR
Cyl + 1 Nozzle, 8.0 m
Radar Cross Section
32.704 m², Large (>1 m²)

Expand to show TLE details & history
Last TLE update: 20 hours ago

TLE from 20 hours ago
0 CZ-3C R/B
1 65487U 25196B   26236.15897942  .00010902  00000-0  10842-2 0  9996
2 65487  28.1156 221.3860 6936804  29.5583 356.0220  2.74758733  9637
Epoch: 2026-08-24T03:48Z
TLE epoch observation values (Epoch: 2026-08-24T03:48:55.821Z)
Latitude
0.00007°
Longitude
-168.34366°
Altitude
599.383 km
Speed
9.784 km/s
True Right ascension
14h 45m 20s
True Declination
0° 00' 00"
Sunlit
Object was in daylight at epoch
Visualization orbit readout
Latitude
Unknown
Longitude
Unknown
Altitude
Unknown
Speed
Unknown
Apparent Right ascension
Unknown
Apparent Declination
Unknown
Sunlit
N/A
Visualization observer readout
Local Sidereal Time
14:37:19
Azimuth
Unknown
Elevation
Unknown
Doppler factor
Unknown
Orbital elements
Apogee altitude
30,097.777 km
Perigee altitude
218.909 km
Semi-major axis
21,536.48 km
Eccentricity
0.69368
Inclination
28.1156°
RAAN
221.386°
Arg. of periapsis
29.5583°
True anomaly
330.56313°
Mean anomaly
356.022°
Eccentric anomaly
347.2512°
Mean motion
0.68672 °/min
Orbital period
524.23 mins
BSTAR
0.0010842
Loading maneuver chart data...
Computing Atmospheric mass density...
Loading historical data...
Loading historical data...
Loading historical data...
Loading historical data...
Loading historical data...
Loading historical data...
Loading historical data...
Other satellites on launch #196 in the year 2025 (2025-09-05 UTC)

Documentation

Showing up to 5 results
|